Quakertown, PA

3:55 PM EDT on September 24, 2017 (GMT -0400)
Quakertown

Weather History for KUKT - June, 2013

Change the Weather History Date:

Monday, June 3, 2013

  Actual Average (KABE) Record (KABE)
Temperature  
Mean Temperature 73 °F -  
Max Temperature 80 °F 74 °F 98 °F (1925)
Min Temperature 66 °F 54 °F 43 °F (1966)
Cooling Degree Days 8    
Growing Degree Days 23 (Base 50)    
Moisture  
Dew Point 63 °F    
Average Humidity 76    
Maximum Humidity 100    
Minimum Humidity 50    
Precipitation  
Precipitation 0.06 in - - ()
Sea Level Pressure  
Sea Level Pressure 29.86 in    
Wind  
Wind Speed 6 mph (NW)    
Max Wind Speed 10 mph    
Max Gust Speed 16 mph    
Visibility 10 miles    
Events      
Averages and records for this station are not official NWS values.
T = Trace of Precipitation, MM = Missing Value Source: NWS Daily Summary

Daily Weather History Graph

Daily Weather History Graph

Search for Another Location

Airport or City:

Trip Planner

Search our weather history database for the weather conditions in past years. The results will help you decide how hot, cold, wet, or windy it might be!

Date:

Astronomy

Jun. 03, 2013 Rise Set
Actual Time 5:32 AM EDT 8:27 PM EDT
Civil Twilight 5:00 AM EDT 8:59 PM EDT
Nautical Twilight 4:18 AM EDT 9:41 PM EDT
Astronomical Twilight 3:31 AM EDT 10:28 PM EDT
Moon 2:29 AM EDT (6/3) 3:54 PM EDT (6/3)
Length of Visible Light 15h 59m
Length of Day
14h 54m
Waning Crescent, 22% of the Moon is Illuminated
Jun 3
Waning Crescent
Jun 8
New
Jun 16
First Quarter
Jun 23
Full
Jun 30
Last Quarter

Hourly Weather History & Observations

Time (EDT) Temp. Heat Index Dew Point Humidity Pressure Visibility Wind Dir Wind Speed Gust Speed Precip Events Conditions
12:10 AM 73.4 °F - 66.2 °F 78% 29.87 in 10.0 mi South 6.9 mph - N/A   Overcast
12:30 AM 71.6 °F - 66.2 °F 83% 29.87 in 10.0 mi South 10.4 mph - N/A   Mostly Cloudy
12:50 AM 71.6 °F - 66.2 °F 83% 29.87 in 10.0 mi South 8.1 mph 16.1 mph N/A   Scattered Clouds
1:10 AM 71.6 °F - 66.2 °F 83% 29.86 in 10.0 mi South 8.1 mph - N/A   Scattered Clouds
1:30 AM 69.8 °F - 66.2 °F 88% 29.86 in 10.0 mi South 8.1 mph - N/A   Mostly Cloudy
1:50 AM 69.8 °F - 66.2 °F 88% 29.86 in 10.0 mi South 9.2 mph - N/A   Mostly Cloudy
2:10 AM 69.8 °F - 66.2 °F 88% 29.86 in 10.0 mi South 8.1 mph - N/A   Overcast
2:30 AM 68.0 °F - 66.2 °F 94% 29.86 in 10.0 mi South 8.1 mph - N/A   Mostly Cloudy
2:50 AM 68.0 °F - 66.2 °F 94% 29.86 in 10.0 mi South 5.8 mph - N/A   Mostly Cloudy
3:10 AM 68.0 °F - 66.2 °F 94% 29.86 in 8.0 mi South 5.8 mph - N/A   Overcast
3:30 AM 68.0 °F - 68.0 °F 100% 29.85 in 10.0 mi South 4.6 mph - N/A   Overcast
3:50 AM 68.0 °F - 68.0 °F 100% 29.84 in 10.0 mi Calm Calm - N/A   Overcast
4:10 AM 68.0 °F - 66.2 °F 94% 29.84 in 10.0 mi Calm Calm - N/A   Mostly Cloudy
4:30 AM 68.0 °F - 66.2 °F 94% 29.84 in 6.0 mi South 3.5 mph - 0.02 in   Mostly Cloudy
4:50 AM 68.0 °F - 68.0 °F 100% 29.84 in 6.0 mi South 4.6 mph - 0.03 in   Mostly Cloudy
5:10 AM 68.0 °F - 68.0 °F 100% 29.84 in 5.0 mi South 3.5 mph - 0.01 in   Overcast
5:30 AM 68.0 °F - 68.0 °F 100% 29.85 in 7.0 mi SSW 3.5 mph - 0.01 in   Overcast
5:50 AM 68.0 °F - 68.0 °F 100% 29.86 in 5.0 mi SSW 5.8 mph - 0.02 in   Overcast
6:10 AM 68.0 °F - 66.2 °F 94% 29.86 in 7.0 mi Calm Calm - N/A   Mostly Cloudy
6:30 AM 68.0 °F - 66.2 °F 94% 29.86 in 10.0 mi Calm Calm - N/A   Overcast
6:50 AM 68.0 °F - 66.2 °F 94% 29.84 in 9.0 mi ESE 3.5 mph - N/A   Mostly Cloudy
7:10 AM 68.0 °F - 68.0 °F 100% 29.86 in 10.0 mi South 3.5 mph - N/A   Mostly Cloudy
7:30 AM 68.0 °F - 68.0 °F 100% 29.87 in 9.0 mi South 3.5 mph - N/A   Overcast
7:50 AM 68.0 °F - 68.0 °F 100% 29.88 in 8.0 mi South 4.6 mph - 0.01 in   Overcast
8:10 AM 68.0 °F - 68.0 °F 100% 29.88 in 10.0 mi South 5.8 mph - N/A   Mostly Cloudy
8:30 AM 68.0 °F - 68.0 °F 100% 29.88 in 9.0 mi South 3.5 mph - N/A   Overcast
8:50 AM 68.0 °F - 68.0 °F 100% 29.88 in 9.0 mi SSW 5.8 mph - N/A   Overcast
9:10 AM 68.0 °F - 66.2 °F 94% 29.88 in 7.0 mi SSW 4.6 mph - N/A   Overcast
9:30 AM 68.0 °F - 66.2 °F 94% 29.88 in 8.0 mi NNW 4.6 mph - N/A   Overcast
9:50 AM 68.0 °F - 64.4 °F 88% 29.88 in 10.0 mi North 3.5 mph - N/A   Unknown
10:10 AM 68.0 °F - 64.4 °F 88% 29.88 in 9.0 mi NNE 5.8 mph - N/A   Overcast
10:30 AM 68.0 °F - 64.4 °F 88% 29.88 in 10.0 mi NNE 3.5 mph - N/A   Mostly Cloudy
10:50 AM 71.6 °F - 66.2 °F 83% 29.88 in 10.0 mi North 5.8 mph - N/A   Partly Cloudy
11:10 AM 73.4 °F - 66.2 °F 78% 29.87 in 10.0 mi NNE 10.4 mph - N/A   Partly Cloudy
11:30 AM 73.4 °F - 64.4 °F 73% 29.88 in 10.0 mi NNE 5.8 mph - N/A   Clear
11:50 AM 75.2 °F - 64.4 °F 69% 29.87 in 10.0 mi ENE 3.5 mph - N/A   Clear
12:10 PM 75.2 °F - 64.4 °F 69% 29.87 in 10.0 mi ENE 3.5 mph - N/A   Clear
12:30 PM 77.0 °F - 64.4 °F 65% 29.87 in 10.0 mi NE 3.5 mph - N/A   Clear
12:50 PM 77.0 °F - 64.4 °F 65% 29.86 in 10.0 mi West 8.1 mph - N/A   Partly Cloudy
1:10 PM 77.0 °F - 62.6 °F 61% 29.86 in 10.0 mi WSW 6.9 mph - N/A   Clear
1:30 PM 80.6 °F 81.8 °F 62.6 °F 54% 29.85 in 10.0 mi SW 4.6 mph - N/A   Partly Cloudy
1:50 PM 78.8 °F - 62.6 °F 57% 29.85 in 10.0 mi Calm Calm - N/A   Mostly Cloudy
2:10 PM 78.8 °F - 62.6 °F 57% 29.84 in 10.0 mi Calm Calm - N/A   Mostly Cloudy
2:30 PM 78.8 °F - 62.6 °F 57% 29.84 in 10.0 mi NNE 5.8 mph - N/A   Mostly Cloudy
2:50 PM 77.0 °F - 62.6 °F 61% 29.84 in 10.0 mi WSW 3.5 mph - N/A   Mostly Cloudy
3:10 PM 77.0 °F - 62.6 °F 61% 29.85 in 10.0 mi NW 6.9 mph - N/A   Mostly Cloudy
3:30 PM 77.0 °F - 62.6 °F 61% 29.84 in 10.0 mi NNW 6.9 mph - N/A   Scattered Clouds
3:50 PM 77.0 °F - 62.6 °F 61% 29.85 in 10.0 mi WNW 6.9 mph - N/A   Partly Cloudy
4:10 PM 75.2 °F - 62.6 °F 65% 29.84 in 10.0 mi North 5.8 mph - N/A   Partly Cloudy
4:30 PM 77.0 °F - 60.8 °F 57% 29.84 in 10.0 mi WNW 10.4 mph - N/A   Clear
4:50 PM 77.0 °F - 62.6 °F 61% 29.84 in 10.0 mi North 9.2 mph - N/A   Clear
5:10 PM 77.0 °F - 60.8 °F 57% 29.84 in 10.0 mi North 6.9 mph - N/A   Clear
5:30 PM 77.0 °F - 62.6 °F 61% 29.84 in 10.0 mi North 5.8 mph - N/A   Clear
5:50 PM 77.0 °F - 60.8 °F 57% 29.83 in 10.0 mi North 5.8 mph - N/A   Partly Cloudy
6:10 PM 77.0 °F - 62.6 °F 61% 29.83 in 10.0 mi North 4.6 mph - N/A   Mostly Cloudy
6:30 PM 77.0 °F - 59.0 °F 54% 29.84 in 10.0 mi North 5.8 mph - N/A   Mostly Cloudy
6:50 PM 75.2 °F - 59.0 °F 57% 29.84 in 10.0 mi NNW 3.5 mph - N/A   Mostly Cloudy
7:10 PM 75.2 °F - 55.4 °F 50% 29.85 in 10.0 mi Calm Calm - N/A   Mostly Cloudy
7:30 PM 75.2 °F - 57.2 °F 53% 29.85 in 10.0 mi NW 3.5 mph - N/A   Overcast
7:50 PM 75.2 °F - 55.4 °F 50% 29.86 in 10.0 mi NNW 3.5 mph - N/A   Mostly Cloudy
8:10 PM 73.4 °F - 57.2 °F 57% 29.86 in 10.0 mi Calm Calm - N/A   Overcast
8:30 PM 71.6 °F - 59.0 °F 64% 29.86 in 10.0 mi Calm Calm - N/A   Scattered Clouds
8:50 PM 69.8 °F - 57.2 °F 64% 29.87 in 10.0 mi Calm Calm - N/A   Scattered Clouds
9:10 PM 69.8 °F - 59.0 °F 68% 29.88 in 10.0 mi WNW 3.5 mph - N/A   Mostly Cloudy
9:30 PM 71.6 °F - 59.0 °F 64% 29.89 in 9.0 mi North 5.8 mph - N/A   Mostly Cloudy
9:50 PM 71.6 °F - 59.0 °F 64% 29.90 in 10.0 mi North 5.8 mph - N/A   Mostly Cloudy
10:10 PM 69.8 °F - 59.0 °F 68% 29.90 in 10.0 mi NNE 4.6 mph - N/A   Mostly Cloudy
10:30 PM 68.0 °F - 59.0 °F 73% 29.90 in 10.0 mi NNE 5.8 mph - N/A   Partly Cloudy
10:50 PM 66.2 °F - 57.2 °F 73% 29.91 in 10.0 mi North 4.6 mph - N/A   Partly Cloudy
11:10 PM 66.2 °F - 55.4 °F 68% 29.91 in 10.0 mi North 5.8 mph - N/A   Clear
11:30 PM 66.2 °F - 55.4 °F 68% 29.92 in 10.0 mi North 6.9 mph - N/A   Scattered Clouds
11:50 PM 66.2 °F - 53.6 °F 64% 29.92 in 10.0 mi North 8.1 mph - N/A   Mostly Cloudy